owner,sensor,date,latitude,longitude,vertical_datum,wind_speed,wind_to_direction,wind_speed_of_gust,qcFlag 
TABS,ioos:station:wmo:42043:1,2013-01-01T00:00:00Z,28.9818,-94.9186,4.0,4.884915557,163.345943,6.37,'11111222,11111222,11111222' 
TABS,ioos:station:wmo:42043:1,2013-01-01T00:30:00Z,28.9818,-94.9186,4.0,4.444614719,151.0708831,5.53,'11111222,11111222,11111222' 
TABS,ioos:station:wmo:42043:1,2013-01-01T01:00:00Z,28.9818,-94.9186,4.0,4.347528033,150.6640626,5.6,'11111222,11111222,11111222' 
TABS,ioos:station:wmo:42043:1,2013-01-01T01:30:00Z,28.9818,-94.9186,4.0,3.625810254,150.9610227,4.46,'11111222,11111222,11111222' 
TABS,ioos:station:wmo:42043:1,2013-01-01T02:00:00Z,28.9818,-94.9186,4.0,3.725614043,152.6786602,4.44,'11111222,11111222,11111222' 
TABS,ioos:station:wmo:42043:1,2013-01-01T02:30:00Z,28.9818,-94.9186,4.0,3.390117992,154.1154807,4.45,'11111222,11111222,11111222' 
TABS,ioos:station:wmo:42043:1,2013-01-01T03:00:00Z,28.9818,-94.9186,4.0,3.977750621,165.4399689,5.01,'11111222,11111222,11111222' 
TABS,ioos:station:wmo:42043:1,2013-01-01T03:30:00Z,28.9818,-94.9186,4.0,4.756816162,163.8894014,6.06,'11111222,11111222,11111222' 
TABS,ioos:station:wmo:42043:1,2013-01-01T04:00:00Z,28.9818,-94.9186,4.0,5.528697858,169.1577647,6.66,'11111222,11111222,11111222' 
TABS,ioos:station:wmo:42043:1,2013-01-01T04:30:00Z,28.9818,-94.9186,4.0,5.791830453,176.3374937,6.96,'11111222,11111222,11111222' 
TABS,ioos:station:wmo:42043:1,2013-01-01T05:00:00Z,28.9818,-94.9186,4.0,5.281145709,178.8067238,6.35,'11111222,11111222,11111222' 
TABS,ioos:station:wmo:42043:1,2013-01-01T05:30:00Z,28.9818,-94.9186,4.0,5.811935994,178.5213055,7.24,'11111222,11111222,11111222' 
TABS,ioos:station:wmo:42043:1,2013-01-01T06:00:00Z,28.9818,-94.9186,4.0,4.834956049,184.5079707,6.12,'11111222,11111222,11111222' 
TABS,ioos:station:wmo:42043:1,2013-01-01T06:30:00Z,28.9818,-94.9186,4.0,2.715879231,189.3237804,3.56,'11111222,11111222,11111222' 
TABS,ioos:station:wmo:42043:1,2013-01-01T07:00:00Z,28.9818,-94.9186,4.0,2.399208203,185.0216598,3.17,'11111222,11111222,11111222' 
TABS,ioos:station:wmo:42043:1,2013-01-01T07:30:00Z,28.9818,-94.9186,4.0,1.830956034,220.1262202,2.58,'11111222,11111222,11111222' 
TABS,ioos:station:wmo:42043:1,2013-01-01T08:00:00Z,28.9818,-94.9186,4.0,3.512833614,221.7691029,4.66,'11111222,11111222,11111222' 
TABS,ioos:station:wmo:42043:1,2013-01-01T08:30:00Z,28.9818,-94.9186,4.0,3.38245473,246.8459479,6.69,'11111222,11111222,11111222' 
TABS,ioos:station:wmo:42043:1,2013-01-01T09:00:00Z,28.9818,-94.9186,4.0,2.969781137,195.6275577,4.02,'11111222,11111222,11111222' 
TABS,ioos:station:wmo:42043:1,2013-01-01T09:30:00Z,28.9818,-94.9186,4.0,1.356650287,234.9042653,2.15,'11111222,11111222,11111222' 
TABS,ioos:station:wmo:42043:1,2013-01-01T10:00:00Z,28.9818,-94.9186,4.0,5.518858578,241.0664682,9.47,'11111222,11111222,11111222' 
TABS,ioos:station:wmo:42043:1,2013-01-01T10:30:00Z,28.9818,-94.9186,4.0,4.382111363,211.6590327,6.22,'11111222,11111222,11111222' 
TABS,ioos:station:wmo:42043:1,2013-01-01T11:00:00Z,28.9818,-94.9186,4.0,6.31078442,194.1245004,8.99,'11111222,11111222,11111222' 
TABS,ioos:station:wmo:42043:1,2013-01-01T11:30:00Z,28.9818,-94.9186,4.0,2.984392736,245.2383261,3.99,'11111222,11111222,11111222' 
TABS,ioos:station:wmo:42043:1,2013-01-01T12:00:00Z,28.9818,-94.9186,4.0,4.94291412,256.1886975,6.99,'11111222,11111222,11111222' 
TABS,ioos:station:wmo:42043:1,2013-01-01T12:30:00Z,28.9818,-94.9186,4.0,2.970605999,290.0819305,4.74,'11111222,11111222,11111222' 
TABS,ioos:station:wmo:42043:1,2013-01-01T13:00:00Z,28.9818,-94.9186,4.0,5.925706709,2.514536308,8.41,'11111222,11111222,11111222' 
TABS,ioos:station:wmo:42043:1,2013-01-01T13:30:00Z,28.9818,-94.9186,4.0,7.143290558,20.05822928,9.77,'11111222,11111222,11111222' 
TABS,ioos:station:wmo:42043:1,2013-01-01T14:00:00Z,28.9818,-94.9186,4.0,9.727363466,11.26348941,11.95,'11111222,11111222,11111222' 
TABS,ioos:station:wmo:42043:1,2013-01-01T14:30:00Z,28.9818,-94.9186,4.0,9.272437651,21.11266952,11.54,'11111222,11111222,11111222' 
TABS,ioos:station:wmo:42043:1,2013-01-01T15:00:00Z,28.9818,-94.9186,4.0,9.725440864,22.42473461,12.64,'11111222,11111222,11111222' 
TABS,ioos:station:wmo:42043:1,2013-01-01T15:30:00Z,28.9818,-94.9186,4.0,10.02194093,19.10362633,12.8,'11111222,11111222,11111222' 
TABS,ioos:station:wmo:42043:1,2013-01-01T16:00:00Z,28.9818,-94.9186,4.0,10.83395126,3.810337581,13.45,'11111222,11111222,11111222' 
TABS,ioos:station:wmo:42043:1,2013-01-01T16:30:00Z,28.9818,-94.9186,4.0,11.65195692,16.70841448,14.53,'11111222,11111222,11111222' 
TABS,ioos:station:wmo:42043:1,2013-01-01T17:00:00Z,28.9818,-94.9186,4.0,11.57439415,12.72723072,14.53,'11111222,11111222,11111222' 
TABS,ioos:station:wmo:42043:1,2013-01-01T17:30:00Z,28.9818,-94.9186,4.0,10.51365303,15.72806352,14.11,'11111222,11111222,11111222' 
TABS,ioos:station:wmo:42043:1,2013-01-01T18:00:00Z,28.9818,-94.9186,4.0,11.57756883,18.95114024,14.25,'11111222,11111222,11111222' 
TABS,ioos:station:wmo:42043:1,2013-01-01T18:30:00Z,28.9818,-94.9186,4.0,11.13642672,25.87450301,13.85,'11111222,11111222,11111222' 
TABS,ioos:station:wmo:42043:1,2013-01-01T19:00:00Z,28.9818,-94.9186,4.0,10.90692441,22.59131543,13.56,'11111222,11111222,11111222' 
TABS,ioos:station:wmo:42043:1,2013-01-01T19:30:00Z,28.9818,-94.9186,4.0,10.55079618,22.74909722,13.03,'11111222,11111222,11111222' 
TABS,ioos:station:wmo:42043:1,2013-01-01T20:00:00Z,28.9818,-94.9186,4.0,10.03412677,18.0554986,12.18,'11111222,11111222,11111222' 
TABS,ioos:station:wmo:42043:1,2013-01-01T20:30:00Z,28.9818,-94.9186,4.0,9.353555474,31.08953649,11.64,'11111222,11111222,11111222' 
TABS,ioos:station:wmo:42043:1,2013-01-01T21:00:00Z,28.9818,-94.9186,4.0,9.060049669,18.73466972,10.89,'11111222,11111222,11111222' 
TABS,ioos:station:wmo:42043:1,2013-01-01T21:30:00Z,28.9818,-94.9186,4.0,8.290054282,20.40209268,10.38,'11111222,11111222,11111222' 
TABS,ioos:station:wmo:42043:1,2013-01-01T22:00:00Z,28.9818,-94.9186,4.0,9.197238716,13.58272131,11.64,'11111222,11111222,11111222' 
TABS,ioos:station:wmo:42043:1,2013-01-01T22:30:00Z,28.9818,-94.9186,4.0,9.126121849,4.335887493,11.37,'11111222,11111222,11111222' 
TABS,ioos:station:wmo:42043:1,2013-01-01T23:00:00Z,28.9818,-94.9186,4.0,8.284932106,5.263078753,11.51,'11111222,11111222,11111222' 
TABS,ioos:station:wmo:42043:1,2013-01-01T23:30:00Z,28.9818,-94.9186,4.0,9.043284801,3.105809374,11.43,'11111222,11111222,11111222' 
TABS,ioos:station:wmo:42043:1,2013-01-02T00:00:00Z,28.9818,-94.9186,4.0,7.2000625,0.238520016,9.01,'11111222,11111222,11111222' 
TABS,ioos:station:wmo:42043:1,2013-01-02T00:30:00Z,28.9818,-94.9186,4.0,6.858250506,4.180631495,8.95,'11111222,11111222,11111222' 
TABS,ioos:station:wmo:42043:1,2013-01-02T01:00:00Z,28.9818,-94.9186,4.0,8.264538705,3.398810552,10.42,'11111222,11111222,11111222' 
TABS,ioos:station:wmo:42043:1,2013-01-02T01:30:00Z,28.9818,-94.9186,4.0,8.569305689,14.66844837,10.49,'11111222,11111222,11111222' 
TABS,ioos:station:wmo:42043:1,2013-01-02T02:00:00Z,28.9818,-94.9186,4.0,8.711567023,17.02027535,10.43,'11111222,11111222,11111222' 
TABS,ioos:station:wmo:42043:1,2013-01-02T02:30:00Z,28.9818,-94.9186,4.0,9.131538753,10.79286742,11.98,'11111222,11111222,11111222' 
TABS,ioos:station:wmo:42043:1,2013-01-02T03:00:00Z,28.9818,-94.9186,4.0,9.432311488,14.3011877,11.83,'11111222,11111222,11111222' 
TABS,ioos:station:wmo:42043:1,2013-01-02T03:30:00Z,28.9818,-94.9186,4.0,9.607190016,14.52779622,12.51,'11111222,11111222,11111222' 
TABS,ioos:station:wmo:42043:1,2013-01-02T04:00:00Z,28.9818,-94.9186,4.0,8.842307391,17.77897973,11.15,'11111222,11111222,11111222' 
TABS,ioos:station:wmo:42043:1,2013-01-02T04:30:00Z,28.9818,-94.9186,4.0,9.195504336,22.91197269,11.32,'11111222,11111222,11111222' 
TABS,ioos:station:wmo:42043:1,2013-01-02T05:00:00Z,28.9818,-94.9186,4.0,8.240588571,28.0885705,10.31,'11111222,11111222,11111222' 
TABS,ioos:station:wmo:42043:1,2013-01-02T05:30:00Z,28.9818,-94.9186,4.0,8.706606687,29.0671092,11.09,'11111222,11111222,11111222' 
TABS,ioos:station:wmo:42043:1,2013-01-02T06:00:00Z,28.9818,-94.9186,4.0,9.156254693,32.87405172,12.12,'11111222,11111222,11111222' 
TABS,ioos:station:wmo:42043:1,2013-01-02T06:30:00Z,28.9818,-94.9186,4.0,8.898994325,20.04335739,11.66,'11111222,11111222,11111222' 
TABS,ioos:station:wmo:42043:1,2013-01-02T07:00:00Z,28.9818,-94.9186,4.0,8.286869131,26.59569907,10.5,'11111222,11111222,11111222' 
TABS,ioos:station:wmo:42043:1,2013-01-02T07:30:00Z,28.9818,-94.9186,4.0,9.272437651,21.11266952,11.56,'11111222,11111222,11111222' 
TABS,ioos:station:wmo:42043:1,2013-01-02T08:00:00Z,28.9818,-94.9186,4.0,8.829841448,21.94574243,10.96,'11111222,11111222,11111222' 
TABS,ioos:station:wmo:42043:1,2013-01-02T08:30:00Z,28.9818,-94.9186,4.0,9.367390245,14.71841217,11.64,'11111222,11111222,11111222' 
TABS,ioos:station:wmo:42043:1,2013-01-02T09:00:00Z,28.9818,-94.9186,4.0,9.917585392,13.58762082,12.79,'11111222,11111222,11111222' 
TABS,ioos:station:wmo:42043:1,2013-01-02T09:30:00Z,28.9818,-94.9186,4.0,10.53383596,11.83239316,13.25,'11111222,11111222,11111222' 
TABS,ioos:station:wmo:42043:1,2013-01-02T10:00:00Z,28.9818,-94.9186,4.0,9.653626262,9.179126371,12.42,'11111222,11111222,11111222' 
TABS,ioos:station:wmo:42043:1,2013-01-02T10:30:00Z,28.9818,-94.9186,4.0,9.647486719,17.11994404,11.79,'11111222,11111222,11111222' 
TABS,ioos:station:wmo:42043:1,2013-01-02T11:00:00Z,28.9818,-94.9186,4.0,10.01531827,13.21734844,12.38,'11111222,11111222,11111222' 
TABS,ioos:station:wmo:42043:1,2013-01-02T11:30:00Z,28.9818,-94.9186,4.0,9.491648961,14.95839064,11.94,'11111222,11111222,11111222' 
TABS,ioos:station:wmo:42043:1,2013-01-02T12:00:00Z,28.9818,-94.9186,4.0,9.745983788,15.53330494,12.34,'11111222,11111222,11111222' 
TABS,ioos:station:wmo:42043:1,2013-01-02T12:30:00Z,28.9818,-94.9186,4.0,9.528006087,18.22551859,12.39,'11111222,11111222,11111222' 
TABS,ioos:station:wmo:42043:1,2013-01-02T13:00:00Z,28.9818,-94.9186,4.0,9.100428561,16.40350354,11.83,'11111222,11111222,11111222' 
TABS,ioos:station:wmo:42043:1,2013-01-02T13:30:00Z,28.9818,-94.9186,4.0,8.851513995,25.63840119,11.35,'11111222,11111222,11111222' 
TABS,ioos:station:wmo:42043:1,2013-01-02T14:00:00Z,28.9818,-94.9186,4.0,8.623392604,33.02636527,10.68,'11111222,11111222,11111222' 
TABS,ioos:station:wmo:42043:1,2013-01-02T14:30:00Z,28.9818,-94.9186,4.0,8.598331233,9.911243226,11.05,'11111222,11111222,11111222' 
TABS,ioos:station:wmo:42043:1,2013-01-02T15:00:00Z,28.9818,-94.9186,4.0,9.239615793,10.66513155,11.6,'11111222,11111222,11111222' 
TABS,ioos:station:wmo:42043:1,2013-01-02T15:30:00Z,28.9818,-94.9186,4.0,7.970508139,10.77397434,10.14,'11111222,11111222,11111222' 
TABS,ioos:station:wmo:42043:1,2013-01-02T16:00:00Z,28.9818,-94.9186,4.0,8.196981152,31.88655025,10.21,'11111222,11111222,11111222' 
TABS,ioos:station:wmo:42043:1,2013-01-02T16:30:00Z,28.9818,-94.9186,4.0,8.23495598,25.38230961,10.62,'11111222,11111222,11111222' 
TABS,ioos:station:wmo:42043:1,2013-01-02T17:00:00Z,28.9818,-94.9186,4.0,7.686676785,19.84911516,9.87,'11111222,11111222,11111222' 
TABS,ioos:station:wmo:42043:1,2013-01-02T17:30:00Z,28.9818,-94.9186,4.0,7.205060721,25.92463043,9.56,'11111222,11111222,11111222' 
TABS,ioos:station:wmo:42043:1,2013-01-02T18:00:00Z,28.9818,-94.9186,4.0,6.956241801,11.35815536,8.73,'11111222,11111222,11111222' 
TABS,ioos:station:wmo:42043:1,2013-01-02T18:30:00Z,28.9818,-94.9186,4.0,6.344336057,17.52078441,8.33,'11111222,11111222,11111222' 
TABS,ioos:station:wmo:42043:1,2013-01-02T19:00:00Z,28.9818,-94.9186,4.0,6.647322769,16.60818038,8.39,'11111222,11111222,11111222' 
TABS,ioos:station:wmo:42043:1,2013-01-02T19:30:00Z,28.9818,-94.9186,4.0,7.100887269,10.13862172,9.58,'11111222,11111222,11111222' 
TABS,ioos:station:wmo:42043:1,2013-01-02T20:00:00Z,28.9818,-94.9186,4.0,7.225544962,6.436291008,9.65,'11111222,11111222,11111222' 
TABS,ioos:station:wmo:42043:1,2013-01-02T20:30:00Z,28.9818,-94.9186,4.0,7.122029205,358.6320354,9.22,'11111222,11111222,11111222' 
TABS,ioos:station:wmo:42043:1,2013-01-02T21:00:00Z,28.9818,-94.9186,4.0,7.614788244,2.03176563,9.45,'11111222,11111222,11111222' 
TABS,ioos:station:wmo:42043:1,2013-01-02T21:30:00Z,28.9818,-94.9186,4.0,6.370816274,6.488940763,8.55,'11111222,11111222,11111222' 
TABS,ioos:station:wmo:42043:1,2013-01-02T22:00:00Z,28.9818,-94.9186,4.0,6.804483816,9.558989631,8.4,'11111222,11111222,11111222' 
TABS,ioos:station:wmo:42043:1,2013-01-02T22:30:00Z,28.9818,-94.9186,4.0,7.315189676,14.56790734,9.59,'11111222,11111222,11111222' 
TABS,ioos:station:wmo:42043:1,2013-01-02T23:00:00Z,28.9818,-94.9186,4.0,6.485445243,20.11116238,9.06,'11111222,11111222,11111222' 
TABS,ioos:station:wmo:42043:1,2013-01-02T23:30:00Z,28.9818,-94.9186,4.0,7.546721142,25.17256809,9.8,'11111222,11111222,11111222' 
TABS,ioos:station:wmo:42043:1,2013-01-03T00:00:00Z,28.9818,-94.9186,4.0,7.796236271,15.01638381,9.81,'11111222,11111222,11111222' 
TABS,ioos:station:wmo:42043:1,2013-01-03T00:30:00Z,28.9818,-94.9186,4.0,7.796313231,20.96865914,9.96,'11111222,11111222,11111222' 
TABS,ioos:station:wmo:42043:1,2013-01-03T01:00:00Z,28.9818,-94.9186,4.0,7.56704698,20.01519417,9.11,'11111222,11111222,11111222' 
TABS,ioos:station:wmo:42043:1,2013-01-03T01:30:00Z,28.9818,-94.9186,4.0,8.020879004,16.51425899,10.27,'11111222,11111222,11111222' 
TABS,ioos:station:wmo:42043:1,2013-01-03T02:00:00Z,28.9818,-94.9186,4.0,8.013900424,20.83192831,9.82,'11111222,11111222,11111222' 
TABS,ioos:station:wmo:42043:1,2013-01-03T02:30:00Z,28.9818,-94.9186,4.0,7.74739311,30.13904154,9.87,'11111222,11111222,11111222' 
TABS,ioos:station:wmo:42043:1,2013-01-03T03:00:00Z,28.9818,-94.9186,4.0,7.529415648,35.75853353,9.55,'11111222,11111222,11111222' 
TABS,ioos:station:wmo:42043:1,2013-01-03T03:30:00Z,28.9818,-94.9186,4.0,6.960833283,29.80585819,9.21,'11111222,11111222,11111222' 
TABS,ioos:station:wmo:42043:1,2013-01-03T04:00:00Z,28.9818,-94.9186,4.0,7.417715282,22.76220168,9.36,'11111222,11111222,11111222' 
TABS,ioos:station:wmo:42043:1,2013-01-03T04:30:00Z,28.9818,-94.9186,4.0,7.45,36.86960097,9.52,'11111222,11111222,11111222' 
TABS,ioos:station:wmo:42043:1,2013-01-03T05:00:00Z,28.9818,-94.9186,4.0,7.654240655,25.125156,9.61,'11111222,11111222,11111222' 
TABS,ioos:station:wmo:42043:1,2013-01-03T05:30:00Z,28.9818,-94.9186,4.0,7.979573923,25.53716421,10.14,'11111222,11111222,11111222' 
TABS,ioos:station:wmo:42043:1,2013-01-03T06:00:00Z,28.9818,-94.9186,4.0,8.73938785,25.77312866,11.05,'11111222,11111222,11111222' 
TABS,ioos:station:wmo:42043:1,2013-01-03T06:30:00Z,28.9818,-94.9186,4.0,8.806730381,29.30077065,11.18,'11111222,11111222,11111222' 
TABS,ioos:station:wmo:42043:1,2013-01-03T07:00:00Z,28.9818,-94.9186,4.0,8.994225926,32.32921831,10.85,'11111222,11111222,11111222' 
TABS,ioos:station:wmo:42043:1,2013-01-03T07:30:00Z,28.9818,-94.9186,4.0,9.029778513,25.94048225,10.83,'11111222,11111222,11111222' 
TABS,ioos:station:wmo:42043:1,2013-01-03T08:00:00Z,28.9818,-94.9186,4.0,8.829224201,18.76303347,11.46,'11111222,11111222,11111222' 
TABS,ioos:station:wmo:42043:1,2013-01-03T08:30:00Z,28.9818,-94.9186,4.0,8.81204857,31.54332416,10.81,'11111222,11111222,11111222' 
TABS,ioos:station:wmo:42043:1,2013-01-03T09:00:00Z,28.9818,-94.9186,4.0,9.289117289,33.00547944,11.56,'11111222,11111222,11111222' 
TABS,ioos:station:wmo:42043:1,2013-01-03T09:30:00Z,28.9818,-94.9186,4.0,9.078331344,30.15166829,11.43,'11111222,11111222,11111222' 
TABS,ioos:station:wmo:42043:1,2013-01-03T10:00:00Z,28.9818,-94.9186,4.0,9.524914698,34.39050546,11.8,'11111222,11111222,11111222' 
TABS,ioos:station:wmo:42043:1,2013-01-03T10:30:00Z,28.9818,-94.9186,4.0,9.270086299,36.6223721,11.37,'11111222,11111222,11111222' 
TABS,ioos:station:wmo:42043:1,2013-01-03T11:00:00Z,28.9818,-94.9186,4.0,9.207893353,31.27294611,11.85,'11111222,11111222,11111222' 
TABS,ioos:station:wmo:42043:1,2013-01-03T11:30:00Z,28.9818,-94.9186,4.0,9.152469612,35.07891241,11.38,'11111222,11111222,11111222' 
TABS,ioos:station:wmo:42043:1,2013-01-03T12:00:00Z,28.9818,-94.9186,4.0,8.959268943,40.4275768,11.31,'11111222,11111222,11111222' 
TABS,ioos:station:wmo:42043:1,2013-01-03T12:30:00Z,28.9818,-94.9186,4.0,9.416166948,38.09882814,12.36,'11111222,11111222,11111222' 
TABS,ioos:station:wmo:42043:1,2013-01-03T13:00:00Z,28.9818,-94.9186,4.0,9.543846185,38.87515027,13.18,'11111222,11111222,11111222' 
TABS,ioos:station:wmo:42043:1,2013-01-03T13:30:00Z,28.9818,-94.9186,4.0,9.673427521,38.78900976,12.02,'11111222,11111222,11111222' 
TABS,ioos:station:wmo:42043:1,2013-01-03T14:00:00Z,28.9818,-94.9186,4.0,9.717129206,43.99898877,12.76,'11111222,11111222,11111222' 
TABS,ioos:station:wmo:42043:1,2013-01-03T14:30:00Z,28.9818,-94.9186,4.0,10.01677094,42.28877037,12.65,'11111222,11111222,11111222' 
TABS,ioos:station:wmo:42043:1,2013-01-03T15:00:00Z,28.9818,-94.9186,4.0,10.34551594,44.41225809,12.85,'11111222,11111222,11111222' 
TABS,ioos:station:wmo:42043:1,2013-01-03T15:30:00Z,28.9818,-94.9186,4.0,9.574392931,41.86680602,12.34,'11111222,11111222,11111222' 
TABS,ioos:station:wmo:42043:1,2013-01-03T16:00:00Z,28.9818,-94.9186,4.0,9.838968442,43.5583295,12.36,'11111222,11111222,11111222' 
TABS,ioos:station:wmo:42043:1,2013-01-03T16:30:00Z,28.9818,-94.9186,4.0,10.0210229,45.92959549,13.18,'11111222,11111222,11111222' 
TABS,ioos:station:wmo:42043:1,2013-01-03T17:00:00Z,28.9818,-94.9186,4.0,9.221984602,45.96623694,11.69,'11111222,11111222,11111222' 
TABS,ioos:station:wmo:42043:1,2013-01-03T17:30:00Z,28.9818,-94.9186,4.0,8.833011944,44.03643756,10.79,'11111222,11111222,11111222' 
TABS,ioos:station:wmo:42043:1,2013-01-03T18:00:00Z,28.9818,-94.9186,4.0,9.336514339,52.5283573,11.66,'11111222,11111222,11111222' 
TABS,ioos:station:wmo:42043:1,2013-01-03T18:30:00Z,28.9818,-94.9186,4.0,9.097746974,48.65378968,11.11,'11111222,11111222,11111222' 
TABS,ioos:station:wmo:42043:1,2013-01-03T19:00:00Z,28.9818,-94.9186,4.0,8.218424423,40.70685411,10.9,'11111222,11111222,11111222' 
TABS,ioos:station:wmo:42043:1,2013-01-03T19:30:00Z,28.9818,-94.9186,4.0,6.237026535,42.20540603,8.67,'11111222,11111222,11111222' 
TABS,ioos:station:wmo:42043:1,2013-01-03T20:00:00Z,28.9818,-94.9186,4.0,6.428763489,23.17492072,8.38,'11111222,11111222,11111222' 
TABS,ioos:station:wmo:42043:1,2013-01-03T20:30:00Z,28.9818,-94.9186,4.0,5.515360369,23.96222248,7.2,'11111222,11111222,11111222' 
TABS,ioos:station:wmo:42043:1,2013-01-03T21:00:00Z,28.9818,-94.9186,4.0,6.192656942,13.16081163,8.24,'11111222,11111222,11111222' 
TABS,ioos:station:wmo:42043:1,2013-01-03T21:30:00Z,28.9818,-94.9186,4.0,6.658595948,22.98365174,8.92,'11111222,11111222,11111222' 
TABS,ioos:station:wmo:42043:1,2013-01-03T22:00:00Z,28.9818,-94.9186,4.0,7.483127688,17.4177196,9.42,'11111222,11111222,11111222' 
TABS,ioos:station:wmo:42043:1,2013-01-03T22:30:00Z,28.9818,-94.9186,4.0,7.820748046,15.11993859,9.94,'11111222,11111222,11111222' 
TABS,ioos:station:wmo:42043:1,2013-01-03T23:00:00Z,28.9818,-94.9186,4.0,6.640700264,13.76396301,8.86,'11111222,11111222,11111222' 
TABS,ioos:station:wmo:42043:1,2013-01-03T23:30:00Z,28.9818,-94.9186,4.0,6.405973775,19.99049079,8.15,'11111222,11111222,11111222' 
TABS,ioos:station:wmo:42043:1,2013-01-04T00:00:00Z,28.9818,-94.9186,4.0,6.854400047,16.26664339,8.29,'11111222,11111222,11111222' 
TABS,ioos:station:wmo:42043:1,2013-01-04T00:30:00Z,28.9818,-94.9186,4.0,7.396228769,29.92716267,9.44,'11111222,11111222,11111222' 
TABS,ioos:station:wmo:42043:1,2013-01-04T01:00:00Z,28.9818,-94.9186,4.0,7.664209026,35.49393236,9.61,'11111222,11111222,11111222' 
TABS,ioos:station:wmo:42043:1,2013-01-04T01:30:00Z,28.9818,-94.9186,4.0,8.368327192,37.37626532,10.17,'11111222,11111222,11111222' 
TABS,ioos:station:wmo:42043:1,2013-01-04T02:00:00Z,28.9818,-94.9186,4.0,8.076855824,26.94547496,10.29,'11111222,11111222,11111222' 
TABS,ioos:station:wmo:42043:1,2013-01-04T02:30:00Z,28.9818,-94.9186,4.0,8.620214614,28.85419524,10.45,'11111222,11111222,11111222' 
TABS,ioos:station:wmo:42043:1,2013-01-04T03:00:00Z,28.9818,-94.9186,4.0,8.84767201,43.85483978,10.93,'11111222,11111222,11111222' 
TABS,ioos:station:wmo:42043:1,2013-01-04T03:30:00Z,28.9818,-94.9186,4.0,8.79436183,40.57272302,11.08,'11111222,11111222,11111222' 
TABS,ioos:station:wmo:42043:1,2013-01-04T04:00:00Z,28.9818,-94.9186,4.0,8.741081169,39.75491252,11.06,'11111222,11111222,11111222' 
TABS,ioos:station:wmo:42043:1,2013-01-04T04:30:00Z,28.9818,-94.9186,4.0,9.101258155,45.75645924,11.34,'11111222,11111222,11111222' 
TABS,ioos:station:wmo:42043:1,2013-01-04T05:00:00Z,28.9818,-94.9186,4.0,8.889955006,50.70572942,11.37,'11111222,11111222,11111222' 
TABS,ioos:station:wmo:42043:1,2013-01-04T05:30:00Z,28.9818,-94.9186,4.0,9.338650866,57.77315355,11.59,'11111222,11111222,11111222' 
TABS,ioos:station:wmo:42043:1,2013-01-04T06:00:00Z,28.9818,-94.9186,4.0,9.465880836,66.79309502,11.7,'11111222,11111222,11111222' 
TABS,ioos:station:wmo:42043:1,2013-01-04T06:30:00Z,28.9818,-94.9186,4.0,9.190484209,79.27654775,11.14,'11111222,11111222,11111222' 
TABS,ioos:station:wmo:42043:1,2013-01-04T07:00:00Z,28.9818,-94.9186,4.0,8.700143677,80.87290725,10.97,'11111222,11111222,11111222' 
TABS,ioos:station:wmo:42043:1,2013-01-04T07:30:00Z,28.9818,-94.9186,4.0,9.064678704,79.06155649,11.24,'11111222,11111222,11111222' 
TABS,ioos:station:wmo:42043:1,2013-01-04T08:00:00Z,28.9818,-94.9186,4.0,8.452768777,76.52233261,10.15,'11111222,11111222,11111222' 
TABS,ioos:station:wmo:42043:1,2013-01-04T08:30:00Z,28.9818,-94.9186,4.0,8.171805186,72.18549972,10.77,'11111222,11111222,11111222' 
TABS,ioos:station:wmo:42043:1,2013-01-04T09:00:00Z,28.9818,-94.9186,4.0,8.269328872,63.96136046,11.09,'11111222,11111222,11111222' 
TABS,ioos:station:wmo:42043:1,2013-01-04T09:30:00Z,28.9818,-94.9186,4.0,8.857115783,64.73653965,11.45,'11111222,11111222,11111222' 
TABS,ioos:station:wmo:42043:1,2013-01-04T10:00:00Z,28.9818,-94.9186,4.0,8.392359621,61.99944496,10.65,'11111222,11111222,11111222' 
TABS,ioos:station:wmo:42043:1,2013-01-04T10:30:00Z,28.9818,-94.9186,4.0,8.372550388,52.47279908,10.56,'11111222,11111222,11111222' 
TABS,ioos:station:wmo:42043:1,2013-01-04T11:00:00Z,28.9818,-94.9186,4.0,9.14000547,57.28326174,11.43,'11111222,11111222,11111222' 
TABS,ioos:station:wmo:42043:1,2013-01-04T11:30:00Z,28.9818,-94.9186,4.0,8.461961947,62.70783435,11.19,'11111222,11111222,11111222' 
TABS,ioos:station:wmo:42043:1,2013-01-04T12:00:00Z,28.9818,-94.9186,4.0,8.187411068,54.19352742,10.08,'11111222,11111222,11111222' 
TABS,ioos:station:wmo:42043:1,2013-01-04T12:30:00Z,28.9818,-94.9186,4.0,7.948635103,49.89876531,9.71,'11111222,11111222,11111222' 
TABS,ioos:station:wmo:42043:1,2013-01-04T13:00:00Z,28.9818,-94.9186,4.0,8.803096046,33.74393294,11.47,'11111222,11111222,11111222' 
TABS,ioos:station:wmo:42043:1,2013-01-04T13:30:00Z,28.9818,-94.9186,4.0,8.905868851,48.5958741,11.33,'11111222,11111222,11111222' 
TABS,ioos:station:wmo:42043:1,2013-01-04T14:00:00Z,28.9818,-94.9186,4.0,8.711417795,51.52475152,11.43,'11111222,11111222,11111222' 
TABS,ioos:station:wmo:42043:1,2013-01-04T14:30:00Z,28.9818,-94.9186,4.0,9.080798423,56.81708278,12.43,'11111222,11111222,11111222' 
TABS,ioos:station:wmo:42043:1,2013-01-04T15:00:00Z,28.9818,-94.9186,4.0,8.477452448,55.18482034,11.03,'11111222,11111222,11111222' 
TABS,ioos:station:wmo:42043:1,2013-01-04T15:30:00Z,28.9818,-94.9186,4.0,8.729083572,57.96644041,11.74,'11111222,11111222,11111222' 
TABS,ioos:station:wmo:42043:1,2013-01-04T16:00:00Z,28.9818,-94.9186,4.0,8.945635807,60.68376166,12.17,'11111222,11111222,11111222' 
TABS,ioos:station:wmo:42043:1,2013-01-04T16:30:00Z,28.9818,-94.9186,4.0,8.758139072,60.06813723,11.19,'11111222,11111222,11111222' 
TABS,ioos:station:wmo:42043:1,2013-01-04T17:00:00Z,28.9818,-94.9186,4.0,8.856618994,66.79254828,10.92,'11111222,11111222,11111222' 
TABS,ioos:station:wmo:42043:1,2013-01-04T17:30:00Z,28.9818,-94.9186,4.0,9.074629469,66.62694285,11.49,'11111222,11111222,11111222' 
TABS,ioos:station:wmo:42043:1,2013-01-04T18:00:00Z,28.9818,-94.9186,4.0,9.178480266,62.34576879,11.75,'11111222,11111222,11111222' 